FW3268 Weather Reports


Display with metric or nautical units.
time (UTC)temp
F
wind
direction
speed
MPH
gust
MPH
rain 1hr
in
rain 24hr
in
rain mn
in
humidity
%
barometer
mb
20260903050003 78 236 0.0 0.0 0.00 0.00 0.00 87 1015.0
20260903044501 79 236 0.0 0.0 0.00 0.00 0.00 87 1014.9
20260903043000 78 232 0.0 0.0 0.00 0.00 0.00 88 1014.8
20260903040008 78 249 0.0 0.0 0.00 0.00 0.00 89 1015.0
20260903034502 78 233 0.0 0.0 0.00 0.00 0.00 89 1015.0
20260903033001 78 253 0.0 0.0 0.00 0.00 0.00 89 1015.0
20260903030005 79 229 0.0 0.0 0.00 0.00 0.00 88 1015.2
20260903024501 79 229 0.0 0.0 0.00 0.00 0.00 88 1015.3
20260903023002 79 229 0.0 0.0 0.00 0.00 0.00 88 1015.3
20260903020005 79 239 0.0 0.0 0.00 0.00 0.00 89 1015.3
20260903014500 79 239 0.0 0.0 0.00 0.00 0.00 89 1015.2
20260903013001 80 239 0.0 0.0 0.00 0.00 0.00 88 1015.2
20260903011502 80 239 0.0 0.0 0.00 0.00 0.00 88 1015.0
20260903004504 81 239 0.0 0.0 0.00 0.00 0.00 87 1014.8
20260903003002 82 239 0.0 0.0 0.00 0.00 0.00 84 1014.7
20260903001500 84 239 0.0 0.0 0.00 0.00 0.00 82 1014.7
20260903000004 85 248 0.0 0.0 0.00 0.00 0.00 79 1014.8
20260902234500 87 257 0.0 0.0 0.00 0.00 0.00 77 1014.8
20260902233001 88 245 0.0 0.0 0.00 0.00 0.00 75 1014.7
20260902231501 89 262 0.0 0.0 0.00 0.00 0.00 73 1014.8
20260902230004 90 221 0.0 0.0 0.00 0.00 0.00 71 1014.8
20260902224501 90 248 0.0 0.0 0.00 0.00 0.00 68 1014.8
20260902221501 91 243 0.0 0.0 0.00 0.00 0.00 67 1014.9
20260902220005 91 280 0.0 0.0 0.00 0.00 0.00 67 1014.8
20260902214501 91 224 0.0 0.0 0.00 0.00 0.00 67 1014.9
20260902213001 91 256 0.0 0.0 0.00 0.00 0.00 67 1014.8
20260902211502 91 271 0.0 0.0 0.00 0.00 0.00 65 1014.8
20260902210002 92 268 0.0 0.0 0.00 0.00 0.00 67 1014.9
20260902204502 92 252 0.0 0.0 0.00 0.00 0.00 66 1014.9
20260902203002 92 280 0.0 0.0 0.00 0.00 0.00 66 1015.1
20260902201502 92 282 0.0 0.0 0.00 0.00 0.00 67 1015.2
20260902200005 92 248 0.0 0.0 0.00 0.00 0.00 65 1015.4
20260902194502 92 223 0.0 0.0 0.00 0.00 0.00 66 1015.6
20260902190005 91 277 0.0 0.0 0.00 0.00 0.00 65 1015.8
20260902184502 91 239 0.0 0.0 0.00 0.00 0.00 67 1015.8
20260902183002 92 245 0.0 0.0 0.00 0.00 0.00 66 1015.9
20260902181503 92 250 0.0 0.0 0.00 0.00 0.00 65 1016.1
20260902174503 91 240 0.0 0.0 0.00 0.00 0.00 67 1016.2
20260902173002 90 238 0.0 0.0 0.00 0.00 0.00 70 1016.3
20260902171503 90 304 0.0 0.0 0.00 0.00 0.00 68 1016.5
20260902170005 90 279 0.0 0.0 0.00 0.00 0.00 67 1016.5
20260902163002 89 239 0.0 0.0 0.00 0.00 0.00 67 1016.7
20260902160008 88 235 0.0 0.0 0.00 0.00 0.00 70 1016.7
20260902153002 88 271 0.0 0.0 0.00 0.00 0.00 71 1016.9
20260902151502 87 240 0.0 0.0 0.00 0.00 0.00 75 1017.0
20260902150006 86 259 0.0 0.0 0.00 0.00 0.00 76 1016.8
20260902144501 85 250 0.0 0.0 0.00 0.00 0.00 78 1017.0
20260902143003 84 237 0.0 0.0 0.00 0.00 0.00 78 1016.9
20260902141502 83 245 0.0 0.0 0.00 0.00 0.00 79 1017.0
20260902140005 82 272 0.0 0.0 0.00 0.00 0.00 80 1017.0
20260902134501 81 258 0.0 0.0 0.00 0.00 0.00 80 1017.3
20260902133002 80 278 0.0 0.0 0.00 0.00 0.00 82 1017.4
20260902131501 79 274 0.0 0.0 0.00 0.00 0.00 82 1017.5
20260902130005 78 265 0.0 0.0 0.00 0.00 0.00 85 1017.4
20260902123001 76 261 0.0 0.0 0.00 0.00 0.00 88 1017.4
20260902121502 75 267 0.0 0.0 0.00 0.00 0.00 88 1017.4
20260902120004 75 269 0.0 0.0 0.00 0.00 0.00 87 1017.4
20260902114501 75 276 0.0 0.0 0.00 0.00 0.00 87 1017.3
20260902113002 75 283 0.0 0.0 0.00 0.00 0.00 87 1017.2
20260902111503 75 272 0.0 0.0 0.00 0.00 0.00 87 1017.1
20260902110007 75 253 0.0 0.0 0.00 0.00 0.00 87 1017.0
20260902104503 73 266 0.0 0.0 0.00 0.00 0.00 89 1016.7
20260902103001 72 226 0.0 0.0 0.00 0.00 0.00 92 1016.6
20260902101501 71 245 0.0 0.0 0.00 0.00 0.00 93 1016.5
20260902100007 71 246 0.0 0.0 0.00 0.00 0.00 92 1016.4
20260902094501 72 240 0.0 0.0 0.00 0.00 0.00 92 1016.4
20260902093001 72 236 0.0 0.0 0.00 0.00 0.00 91 1016.2
20260902091501 73 236 0.0 0.0 0.00 0.00 0.00 90 1016.2
20260902090005 74 233 0.0 0.0 0.00 0.00 0.00 89 1016.2
20260902083000 73 259 0.0 0.0 0.00 0.00 0.00 90 1016.2
20260902081501 73 269 0.0 0.0 0.00 0.00 0.00 90 1016.1
20260902080005 73 252 0.0 0.0 0.00 0.00 0.00 92 1016.0
20260902074501 73 242 0.0 0.0 0.00 0.00 0.00 92 1016.0
20260902071500 73 247 0.0 0.0 0.00 0.00 0.00 93 1016.0
20260902070006 73 247 0.0 0.0 0.00 0.00 0.00 92 1016.1
20260902064500 73 247 0.0 0.0 0.00 0.00 0.00 93 1016.1
20260902061500 73 247 0.0 0.0 0.00 0.00 0.00 92 1016.1
20260902060004 74 247 0.0 1.0 0.00 0.00 0.00 92 1016.3
20260902054502 74 247 0.0 1.0 0.00 0.00 0.00 93 1016.2
20260902053002 74 247 0.0 0.0 0.00 0.00 0.00 92 1016.2